Hourly Data Report for August 20, 2015

All times are specified in Local Standard Time (LST). Add 1 hour to adjust for Daylight Saving Time where and when it is observed.

TORONTO INTL A
ONTARIO

43°40'36.000" N
79°37'50.000" W
173.40 m
6158731
71624
YYZ

Download Data

Hourly Data (August 2015)
Hourly Data Report for August 20, 2015
Temp Definition
°C
Dew Point Temp Definition
°C
Rel Hum Definition
%
Wind Dir Definition
10's deg

Wind Spd Definition
km/h
Visibility Definition
km
Stn Press Definition
kPa
Hmdx Definition


Wind Chill Definition


Weather Definition


TIME
00:00 Legend Double Dagger 22.7 21.0 90 16 10 24.1 98.81 31   LegendNANA
01:00 Legend Double Dagger 22.6 20.9 90 14 10 24.1 98.75 31   Cloudy
02:00 Legend Double Dagger 23.0 21.3 90 15 16 24.1 98.71 32   LegendNANA
03:00 Legend Double Dagger 22.8 21.3 91 14 15 24.1 98.67 31   LegendNANA
04:00 Legend Double Dagger 22.9 21.2 90 15 14 24.1 98.63 31   Mostly Cloudy
05:00 Legend Double Dagger 23.1 20.9 87 15 18 24.1 98.58 31   LegendNANA
06:00 Legend Double Dagger 23.2 21.0 87 16 16 24.1 98.58 32   LegendNANA
07:00 Legend Double Dagger 24.0 21.0 83 17 25 24.1 98.62 32   Cloudy
08:00 Legend Double Dagger 23.7 21.1 85 17 20 24.1 98.64 32   LegendNANA
09:00 Legend Double Dagger 24.4 21.4 83 17 14 24.1 98.60 33   LegendNANA
10:00 Legend Double Dagger 21.5 19.5 88 24 17 24.1 98.70 29   Rain Showers
11:00 Legend Double Dagger 22.2 19.8 86 21 10 24.1 98.76 30   Rain Showers
12:00 Legend Double Dagger 21.6 19.7 89 26 14 24.1 98.76 29   Rain Showers
13:00 Legend Double Dagger 23.8 19.0 74 22 21 24.1 98.76 31   Mostly Cloudy
14:00 Legend Double Dagger 25.1 16.1 57 22 18 24.1 98.74 30   LegendNANA
15:00 Legend Double Dagger 25.5 15.4 53 23 32 24.1 98.77 30   LegendNANA
16:00 Legend Double Dagger 25.3 14.3 50 24 32 24.1 98.82 29   Mostly Cloudy
17:00 Legend Double Dagger 24.8 14.4 52 25 25 24.1 98.89 28   LegendNANA
18:00 Legend Double Dagger 23.7 13.7 53 25 23 24.1 98.98 27   LegendNANA
19:00 Legend Double Dagger 22.2 14.9 63 22 25 24.1 99.04 26   Mainly Clear
20:00 Legend Double Dagger 21.2 14.2 64 22 18 24.1 99.13 25   LegendNANA
21:00 Legend Double Dagger 20.3 13.6 65 22 23 24.1 99.20     LegendNANA
22:00 Legend Double Dagger 19.3 13.6 69 24 19 24.1 99.24     Mainly Clear
23:00 Legend Double Dagger 19.4 13.0 66 26 22 24.1 99.28     LegendNANA

Notes on Data Quality.

Legend

  • E = Estimated
  • M = Missing
  • NA = Not Available
  • ‡ = Partner data that is not subject to review by the National Climate Archives
Date modified: